This is the latest recevied weather packets stored in our database for station/object IZ5MJO-13. If no packets are shown the sender has not sent any weather packets the latest 10 day(s).
| Time | Temp. | Humidity | Pressure | Rain* | Wind** | Luminosity | Snow |
|---|---|---|---|---|---|---|---|
| 1777650217 | 22.22° C | 21% | 1012.1 hPa | - | - | - | - |
| 1777649317 | 22.78° C | 21% | 1012.2 hPa | - | - | - | - |
| 1777648417 | 23.33° C | 21% | 1012.2 hPa | - | - | - | - |
| 1777647516 | 23.33° C | 21% | 1012.3 hPa | - | - | - | - |
| 1777646616 | 23.33° C | 20% | 1012.5 hPa | - | - | - | - |
| 1777645716 | 23.33° C | 18% | 1012.5 hPa | - | - | - | - |
| 1777644822 | 23.89° C | 19% | 1012.6 hPa | - | - | - | - |
| 1777643921 | 23.33° C | 21% | 1012.6 hPa | - | - | - | - |
| 1777643021 | 22.78° C | 23% | 1012.6 hPa | - | - | - | - |
| 1777642121 | 22.78° C | 23% | 1012.6 hPa | - | - | - | - |
| 1777641220 | 21.67° C | 25% | 1012.4 hPa | - | - | - | - |
| 1777640320 | 22.22° C | 24% | 1012.6 hPa | - | - | - | - |
| 1777639420 | 21.67° C | 22% | 1012.9 hPa | - | - | - | - |
| 1777638520 | 21.11° C | 26% | 1012.9 hPa | - | - | - | - |
| 1777637619 | 21.11° C | 24% | 1013 hPa | - | - | - | - |
| 1777636719 | 21.11° C | 24% | 1013.1 hPa | - | - | - | - |
| 1777635819 | 20° C | 26% | 1013.2 hPa | - | - | - | - |
| 1777634919 | 20° C | 25% | 1013.2 hPa | - | - | - | - |
| 1777634019 | 20° C | 23% | 1013.5 hPa | - | - | - | - |
| 1777633118 | 19.44° C | 25% | 1013.4 hPa | - | - | - | - |
| 1777632218 | 18.33° C | 24% | 1013.5 hPa | - | - | - | - |
| 1777631318 | 17.78° C | 27% | 1013.6 hPa | - | - | - | - |
| 1777630418 | 17.22° C | 26% | 1013.7 hPa | - | - | - | - |
| 1777629518 | 16.67° C | 27% | 1013.9 hPa | - | - | - | - |
| 1777628616 | 16.67° C | 30% | 1014.1 hPa | - | - | - | - |
* Rain since midnight (hover to see other rain measurements)
** Current wind speed in m/s (hover to see current wind gust speed)